ATLAS CENTAUR DEB, 43342

Orbit data source: Space-Track

ATLAS CENTAUR DEB, 43342 is space debris in GEO originally from a launch on Sat, 14 Apr 2018 UTC launched from the Air Force Eastern Test Range (AFETR). Debris objects in space refer to the collection of defunct objects orbiting the Earth. Examples of debris include non-operational satellites, rocket bodies, and fragments generated from explosions, collisions, or faulty payload assembly.

Loading next visibility...
Identifier
43342, 2018-036D
Orbit
GEO
Country
Flag of USUS
Related business
Manufacturer
LMSS Denver
Mission
Spacecraft
Bus & Motor
Unknown
Mass
Unknown
Launch date (UTC)
2018-04-14 (8 years ago)
Launch vehicle
Unknown
Launch site
Air Force Eastern Test Range (AFETR)
Object type
Payload
Rocket body
Debris
Shape & HBR
Unknown shape, 1.1 m
Radar Cross Section
Medium (>0.1 m² and <1 m²)

Expand to show TLE details & history
Last TLE update: 3 days ago

TLE from 3 days ago
0 ATLAS CENTAUR DEB
1 43342U 18036D   26170.78940311 -.00000163  00000-0  00000+0 0  9993
2 43342   7.1071  67.0841 0019577 166.2954 193.6333  1.02326582 25332
Epoch: 2026-06-19T18:56Z
TLE epoch observation values (Epoch: 2026-06-19T18:56:44.428Z)
Latitude
-0°
Longitude
-125.22254°
Altitude
35,299.018 km
Speed
3.09 km/s
True Right ascension
04h 27m 54s
True Declination
0° 00' 00"
Sunlit
Object was in daylight at epoch
Visualization orbit readout
Latitude
Unknown
Longitude
Unknown
Altitude
Unknown
Speed
Unknown
Apparent Right ascension
Unknown
Apparent Declination
Unknown
Sunlit
N/A
Visualization observer readout
Local Sidereal Time
21:26:15
Azimuth
Unknown
Elevation
Unknown
Doppler factor
Unknown
Orbital elements
Apogee altitude
35,302.721 km
Perigee altitude
35,139.843 km
Semi-major axis
41,599.419 km
Eccentricity
0.00196
Inclination
7.1071°
RAAN
67.0841°
Arg. of periapsis
166.2954°
True anomaly
193.58055°
Mean anomaly
193.6333°
Eccentric anomaly
193.60691°
Mean motion
0.25581 °/min
Orbital period
1,407.31 mins
BSTAR
0
Loading maneuver chart data...
Computing Atmospheric mass density...
Loading historical data...
Loading historical data...
Loading historical data...
Loading historical data...
Loading historical data...
Loading historical data...
Loading historical data...
Other satellites on launch #36 in the year 2018 (2018-04-14 UTC)

Documentation

Showing up to 5 results
|